| time (UTC) | temp F | wind direction | speed MPH | gust MPH | rain 1hr in | rain 24hr in | rain mn in | humidity % | barometer mb |
| 20260504204534 | 78 | 261 | 21.0 | 32.0 | 0.00 | 0.00 | 0.00 | 39 | 1009.3 |
| 20260504203017 | 78 | 234 | 16.0 | 31.0 | 0.00 | 0.00 | 0.00 | 41 | 1009.4 |
| 20260504201503 | 78 | 259 | 20.0 | 30.0 | 0.00 | 0.00 | 0.00 | 40 | 1009.7 |
| 20260504200003 | 78 | 259 | 19.0 | 33.0 | 0.00 | 0.00 | 0.00 | 41 | 1009.7 |
| 20260504194507 | 78 | 256 | 23.0 | 32.0 | 0.00 | 0.00 | 0.00 | 40 | 1009.7 |
| 20260504193007 | 78 | 259 | 22.0 | 34.0 | 0.00 | 0.00 | 0.00 | 40 | 1009.9 |
| 20260504191512 | 78 | 252 | 23.0 | 34.0 | 0.00 | 0.00 | 0.00 | 39 | 1010.1 |
| 20260504190003 | 78 | 273 | 15.0 | 28.0 | 0.00 | 0.00 | 0.00 | 41 | 1010.3 |
| 20260504184504 | 78 | 286 | 15.0 | 27.0 | 0.00 | 0.00 | 0.00 | 39 | 1010.7 |
| 20260504183008 | 77 | 265 | 19.0 | 29.0 | 0.00 | 0.00 | 0.00 | 38 | 1011.0 |
| 20260504181514 | 77 | 273 | 22.0 | 33.0 | 0.00 | 0.00 | 0.00 | 38 | 1010.9 |
| 20260504180018 | 78 | 279 | 10.0 | 25.0 | 0.00 | 0.00 | 0.00 | 40 | 1011.3 |
| 20260504174504 | 77 | 276 | 19.0 | 28.0 | 0.00 | 0.00 | 0.00 | 38 | 1011.2 |
| 20260504173003 | 77 | 256 | 19.0 | 32.0 | 0.00 | 0.00 | 0.00 | 39 | 1011.4 |
| 20260504171510 | 77 | 252 | 16.0 | 31.0 | 0.00 | 0.00 | 0.00 | 42 | 1011.5 |
| 20260504081508 | 62 | 255 | 7.0 | 12.0 | 0.00 | 0.00 | 0.00 | 69 | 1012.5 |
| 20260504044535 | 63 | 259 | 6.0 | 10.0 | 0.00 | 0.00 | 0.00 | 67 | 1014.5 |
| 20260504043021 | 63 | 255 | 5.0 | 10.0 | 0.00 | 0.00 | 0.00 | 66 | 1014.6 |
| 20260504041518 | 64 | 250 | 6.0 | 12.0 | 0.00 | 0.00 | 0.00 | 65 | 1014.6 |
| 20260504040024 | 64 | 258 | 7.0 | 11.0 | 0.00 | 0.00 | 0.00 | 64 | 1014.6 |
| 20260504034525 | 65 | 252 | 9.0 | 12.0 | 0.00 | 0.00 | 0.00 | 63 | 1014.7 |
| 20260504033026 | 65 | 268 | 9.0 | 14.0 | 0.00 | 0.00 | 0.00 | 62 | 1014.6 |
| 20260504031514 | 66 | 265 | 9.0 | 13.0 | 0.00 | 0.00 | 0.00 | 61 | 1014.6 |
| 20260504030022 | 66 | 242 | 9.0 | 13.0 | 0.00 | 0.00 | 0.00 | 61 | 1014.6 |
| 20260504024523 | 66 | 250 | 7.0 | 13.0 | 0.00 | 0.00 | 0.00 | 60 | 1014.6 |
| 20260504023025 | 66 | 259 | 9.0 | 13.0 | 0.00 | 0.00 | 0.00 | 59 | 1014.6 |
| 20260504021526 | 66 | 252 | 7.0 | 12.0 | 0.00 | 0.00 | 0.00 | 60 | 1014.5 |
| 20260504020018 | 66 | 238 | 4.0 | 9.0 | 0.00 | 0.00 | 0.00 | 59 | 1014.5 |
| 20260504014523 | 67 | 240 | 5.0 | 9.0 | 0.00 | 0.00 | 0.00 | 58 | 1014.3 |
| 20260504013030 | 67 | 243 | 4.0 | 8.0 | 0.00 | 0.00 | 0.00 | 57 | 1014.3 |
| 20260504011527 | 68 | 242 | 4.0 | 9.0 | 0.00 | 0.00 | 0.00 | 56 | 1014.3 |
| 20260504010015 | 68 | 239 | 4.0 | 9.0 | 0.00 | 0.00 | 0.00 | 54 | 1014.2 |
| 20260504004519 | 69 | 238 | 7.0 | 12.0 | 0.00 | 0.00 | 0.00 | 53 | 1014.1 |
| 20260504003023 | 70 | 217 | 6.0 | 12.0 | 0.00 | 0.00 | 0.00 | 52 | 1014.3 |
| 20260504001508 | 70 | 244 | 8.0 | 13.0 | 0.00 | 0.00 | 0.00 | 50 | 1014.6 |
| 20260504000012 | 71 | 256 | 7.0 | 11.0 | 0.00 | 0.00 | 0.00 | 49 | 1014.6 |
| 20260503234516 | 72 | 232 | 8.0 | 14.0 | 0.00 | 0.00 | 0.00 | 47 | 1014.8 |
| 20260503233021 | 72 | 250 | 8.0 | 16.0 | 0.00 | 0.00 | 0.00 | 45 | 1015.1 |
| 20260503231524 | 72 | 260 | 7.0 | 13.0 | 0.00 | 0.00 | 0.00 | 45 | 1015.3 |
| 20260503230010 | 72 | 260 | 7.0 | 14.0 | 0.00 | 0.00 | 0.00 | 42 | 1015.3 |
| 20260503224514 | 72 | 259 | 12.0 | 17.0 | 0.00 | 0.00 | 0.00 | 41 | 1015.3 |
| 20260503223020 | 73 | 271 | 8.0 | 16.0 | 0.00 | 0.00 | 0.00 | 40 | 1015.4 |
| 20260503221525 | 72 | 252 | 11.0 | 21.0 | 0.00 | 0.00 | 0.00 | 40 | 1015.5 |
| 20260503220024 | 73 | 230 | 12.0 | 18.0 | 0.00 | 0.00 | 0.00 | 41 | 1015.6 |
| 20260503214511 | 72 | 240 | 10.0 | 18.0 | 0.00 | 0.00 | 0.00 | 42 | 1016.0 |
| 20260503213016 | 72 | 230 | 8.0 | 24.0 | 0.00 | 0.00 | 0.00 | 43 | 1016.3 |
| 20260503211532 | 72 | 252 | 11.0 | 17.0 | 0.00 | 0.00 | 0.00 | 41 | 1016.5 |
| 20260503210025 | 72 | 244 | 10.0 | 23.0 | 0.00 | 0.00 | 0.00 | 40 | 1016.7 |